EW0455 Weather Reports


time (UTC)temp
F
wind
direction
speed
knots
gust
knots
rain 1hr
in
rain 24hr
in
rain mn
in
humidity
%
barometer
mb
20260505214050 77 256 1.7 6.1 0.00 0.00 0.00 68
20260505213150 76 261 2.6 8.7 0.00 0.00 0.00 68
20260505205550 78 255 2.6 8.7 0.00 0.00 0.00 63
20260505204650 78 254 1.7 9.6 0.00 0.00 0.00 61
20260505202850 79 257 2.6 10.4 0.00 0.00 0.00 59
20260505201050 79 249 2.6 10.4 0.00 0.00 0.00 58
20260505200149 80 257 2.6 10.4 0.00 0.00 0.00 57
20260505195250 79 275 2.6 11.3 0.00 0.00 0.00 59
20260505193450 80 252 2.6 8.7 0.00 0.00 0.00 58
20260505192550 80 255 2.6 9.6 0.00 0.00 0.00 58
20260505191650 80 275 2.6 9.6 0.00 0.00 0.00 58
20260505190749 80 273 3.5 11.3 0.00 0.00 0.00 60
20260505185849 80 247 2.6 9.6 0.00 0.00 0.00 62
20260505184950 80 253 2.6 10.4 0.00 0.00 0.00 61
20260505184050 80 248 1.7 8.7 0.00 0.00 0.00 61
20260505183150 80 256 2.6 10.4 0.00 0.00 0.00 62
20260505182250 81 245 1.7 8.7 0.00 0.00 0.00 60
20260505181350 80 272 4.3 10.4 0.00 0.00 0.00 63
20260505180450 80 260 2.6 11.3 0.00 0.00 0.00 61
20260505175550 81 255 1.7 9.6 0.00 0.00 0.00 57
20260505174650 80 267 2.6 9.6 0.00 0.00 0.00 59
20260505173750 80 260 1.7 11.3 0.00 0.00 0.00 60
20260505172850 80 255 1.7 8.7 0.00 0.00 0.00 60
20260505171950 80 249 1.7 10.4 0.00 0.00 0.00 59
20260505171050 80 251 2.6 8.7 0.00 0.00 0.00 58
20260505170150 80 244 2.6 7.0 0.00 0.00 0.00 62
20260505164350 80 270 2.6 11.3 0.00 0.00 0.00 61
20260505163450 80 254 1.7 11.3 0.00 0.00 0.00 59
20260505162550 80 243 1.7 6.1 0.00 0.00 0.00 63
20260505161650 80 247 1.7 6.1 0.00 0.00 0.00 60
20260505160750 80 252 1.7 8.7 0.00 0.00 0.00 61
20260505153150 80 226 0.9 4.3 0.00 0.00 0.00 65
20260505151350 78 249 0.9 3.5 0.00 0.00 0.00 70
20260505150450 78 244 0.9 6.1 0.00 0.00 0.00 69
20260505140150 75 215 0.0 3.5 0.00 0.00 0.00 72
20260505124950 64 139 0.0 0.9 0.00 0.00 0.00 96
20260505124050 62 0 0.0 0.0 0.00 0.00 0.00 96
20260505123150 61 0 0.0 0.0 0.00 0.00 0.00 96
20260505122250 59 0 0.0 0.0 0.00 0.00 0.00 95
20260505121350 57 0 0.0 0.0 0.00 0.00 0.00 95
20260505120450 55 0 0.0 0.0 0.00 0.00 0.00 95
20260505115550 54 0 0.0 0.0 0.00 0.00 0.00 95
20260505113750 51 0 0.0 0.0 0.00 0.00 0.00 94
20260505112850 50 0 0.0 0.0 0.00 0.00 0.00 94
20260505111950 50 0 0.0 0.0 0.00 0.00 0.00 94
20260505111050 49 0 0.0 0.0 0.00 0.00 0.00 94
20260505110150 49 0 0.0 0.0 0.00 0.00 0.00 93
20260505101650 50 0 0.0 0.0 0.00 0.00 0.00 93
20260505100750 50 0 0.0 0.0 0.00 0.00 0.00 93
20260505094950 50 0 0.0 0.0 0.00 0.00 0.00 93
20260505094050 50 0 0.0 0.0 0.00 0.00 0.00 93
20260505093150 50 0 0.0 0.0 0.00 0.00 0.00 93
20260505084650 50 0 0.0 0.0 0.00 0.00 0.00 93
20260505083750 50 0 0.0 0.0 0.00 0.00 0.00 93
20260505082850 51 0 0.0 0.0 0.00 0.00 0.00 93
20260505081950 51 0 0.0 0.0 0.00 0.00 0.00 92
20260505081050 51 0 0.0 0.0 0.00 0.00 0.00 92
20260505080150 52 0 0.0 0.0 0.00 0.00 0.00 92
20260505075250 52 0 0.0 0.0 0.00 0.00 0.00 92
20260505074350 52 0 0.0 0.0 0.00 0.00 0.00 92
20260505073450 52 0 0.0 0.0 0.00 0.00 0.00 92
20260505065850 53 0 0.0 0.0 0.00 0.00 0.00 91
20260505064950 53 0 0.0 0.0 0.00 0.00 0.00 91
20260505064050 54 0 0.0 0.0 0.00 0.00 0.00 91
20260505063150 54 0 0.0 0.0 0.00 0.00 0.00 90
20260505062250 54 0 0.0 0.0 0.00 0.00 0.00 90
20260505061350 55 0 0.0 0.0 0.00 0.00 0.00 90
20260505060450 55 0 0.0 0.0 0.00 0.00 0.00 90
20260505055550 56 0 0.0 0.0 0.00 0.00 0.00 90
20260505054650 56 0 0.0 0.0 0.00 0.00 0.00 89
20260505052850 57 0 0.0 0.0 0.00 0.00 0.00 90
20260505051950 57 0 0.0 0.0 0.00 0.00 0.00 90
20260505050150 57 0 0.0 0.0 0.00 0.00 0.00 89
20260505040750 60 0 0.0 0.0 0.00 0.00 0.00 87
20260505035850 60 0 0.0 0.0 0.00 0.00 0.00 87
20260505034950 61 0 0.0 0.0 0.00 0.00 0.00 86
20260505034050 62 0 0.0 0.0 0.00 0.00 0.00 86
20260505033150 62 0 0.0 0.0 0.00 0.00 0.00 85
20260505032250 63 0 0.0 0.0 0.00 0.00 0.00 84
20260505031350 64 188 0.0 1.7 0.00 0.00 0.00 83
20260505030450 65 202 0.0 3.5 0.00 0.00 0.00 82
20260505025550 65 214 0.0 3.5 0.00 0.00 0.00 83
20260505024650 64 191 0.0 0.9 0.00 0.00 0.00 83
20260505022850 64 194 0.0 0.9 0.00 0.00 0.00 83
20260505021950 65 246 0.0 5.2 0.00 0.00 0.00 83
20260505021050 64 257 0.0 5.2 0.00 0.00 0.00 84
20260505020150 64 184 0.0 0.9 0.00 0.00 0.00 84
20260505015250 64 203 0.0 1.7 0.00 0.00 0.00 84
20260505014350 64 253 0.0 3.5 0.00 0.00 0.00 84
20260505013450 64 261 0.0 3.5 0.00 0.00 0.00 84
20260505012550 64 0 0.0 0.0 0.00 0.00 0.00 83
20260505010750 65 0 0.0 0.0 0.00 0.00 0.00 81
20260505005850 66 188 0.0 0.9 0.00 0.00 0.00 79
20260505004950 66 190 0.0 0.9 0.00 0.00 0.00 78
20260505003150 67 186 0.0 0.9 0.00 0.00 0.00 75
20260505002250 68 222 0.0 1.7 0.00 0.00 0.00 74
20260505001350 68 230 0.0 3.5 0.00 0.00 0.00 73
20260505000450 69 242 0.0 5.2 0.00 0.00 0.00 72
20260504235550 70 218 0.9 3.5 0.00 0.00 0.00 71
20260504234650 70 229 0.9 6.1 0.00 0.00 0.00 70
20260504233750 71 224 0.9 4.3 0.00 0.00 0.00 69
20260504231050 72 256 1.7 5.2 0.00 0.00 0.00 66
20260504230150 72 250 1.7 7.0 0.00 0.00 0.00 65
20260504224350 74 274 2.6 10.4 0.00 0.00 0.00 64
20260504223450 74 252 1.7 7.0 0.00 0.00 0.00 62
20260504221650 75 269 2.6 9.6 0.00 0.00 0.00 61
20260504220750 75 257 2.6 9.6 0.00 0.00 0.00 59
20260504214950 75 273 2.6 10.4 0.00 0.00 0.00 58